| time (UTC) | temp F | wind direction | speed MPH | gust MPH | rain 1hr in | rain 24hr in | rain mn in | humidity % | barometer mb |
| 20260905000015 | 96 | 133 | 6.0 | 11.0 | 0.00 | 0.00 | 0.00 | 44 | 1007.1 |
| 20260904234523 | 96 | 152 | 2.0 | 9.0 | 0.00 | 0.00 | 0.00 | 45 | 1007.0 |
| 20260904233014 | 97 | 121 | 5.0 | 10.0 | 0.00 | 0.00 | 0.00 | 44 | 1007.0 |
| 20260904231513 | 97 | 140 | 9.0 | 14.0 | 0.00 | 0.00 | 0.00 | 43 | 1007.0 |
| 20260904230012 | 98 | 146 | 0.0 | 10.0 | 0.00 | 0.00 | 0.00 | 43 | 1006.9 |
| 20260904224510 | 98 | 154 | 7.0 | 11.0 | 0.00 | 0.00 | 0.00 | 42 | 1007.0 |
| 20260904223010 | 98 | 199 | 6.0 | 13.0 | 0.00 | 0.00 | 0.00 | 42 | 1006.9 |
| 20260904221509 | 98 | 179 | 6.0 | 13.0 | 0.00 | 0.00 | 0.00 | 43 | 1006.9 |
| 20260904220006 | 98 | 150 | 9.0 | 15.0 | 0.00 | 0.00 | 0.00 | 43 | 1007.0 |
| 20260904214507 | 98 | 168 | 10.0 | 16.0 | 0.00 | 0.00 | 0.00 | 43 | 1007.2 |
| 20260904213005 | 98 | 142 | 9.0 | 13.0 | 0.00 | 0.00 | 0.00 | 43 | 1007.2 |
| 20260904211503 | 98 | 220 | 6.0 | 13.0 | 0.00 | 0.00 | 0.00 | 44 | 1007.4 |
| 20260904210002 | 98 | 131 | 1.0 | 13.0 | 0.00 | 0.00 | 0.00 | 43 | 1007.5 |
| 20260904204600 | 98 | 175 | 8.0 | 15.0 | 0.00 | 0.00 | 0.00 | 44 | 1007.6 |
| 20260904203058 | 98 | 127 | 8.0 | 15.0 | 0.00 | 0.00 | 0.00 | 44 | 1007.7 |
| 20260904201554 | 98 | 211 | 3.0 | 15.0 | 0.00 | 0.00 | 0.00 | 45 | 1007.9 |
| 20260904200052 | 97 | 157 | 8.0 | 15.0 | 0.00 | 0.00 | 0.00 | 45 | 1008.0 |
| 20260904194549 | 97 | 152 | 8.0 | 15.0 | 0.00 | 0.00 | 0.00 | 47 | 1008.1 |
| 20260904193051 | 96 | 175 | 10.0 | 17.0 | 0.00 | 0.00 | 0.00 | 48 | 1008.3 |
| 20260904191542 | 96 | 126 | 7.0 | 17.0 | 0.00 | 0.00 | 0.00 | 50 | 1008.3 |
| 20260904190039 | 95 | 158 | 11.0 | 18.0 | 0.00 | 0.00 | 0.00 | 50 | 1008.5 |
| 20260904184538 | 95 | 184 | 9.0 | 16.0 | 0.00 | 0.00 | 0.00 | 52 | 1008.7 |
| 20260904183035 | 94 | 159 | 9.0 | 17.0 | 0.00 | 0.00 | 0.00 | 53 | 1008.9 |
| 20260904181534 | 94 | 157 | 9.0 | 17.0 | 0.00 | 0.00 | 0.00 | 53 | 1009.1 |
| 20260904180031 | 93 | 128 | 8.0 | 17.0 | 0.00 | 0.00 | 0.00 | 55 | 1009.3 |
| 20260904174528 | 92 | 133 | 8.0 | 14.0 | 0.00 | 0.00 | 0.00 | 56 | 1009.4 |
| 20260904173032 | 92 | 142 | 9.0 | 15.0 | 0.00 | 0.00 | 0.00 | 57 | 1009.7 |
| 20260904171530 | 91 | 171 | 5.0 | 14.0 | 0.00 | 0.00 | 0.00 | 59 | 1009.7 |
| 20260904170021 | 89 | 159 | 5.0 | 14.0 | 0.00 | 0.00 | 0.00 | 60 | 1009.9 |
| 20260904164526 | 89 | 137 | 5.0 | 13.0 | 0.00 | 0.00 | 0.00 | 61 | 1010.0 |
| 20260904163020 | 88 | 161 | 6.0 | 11.0 | 0.00 | 0.00 | 0.00 | 63 | 1010.1 |
| 20260904161516 | 87 | 167 | 7.0 | 12.0 | 0.00 | 0.00 | 0.00 | 63 | 1010.1 |
| 20260904160019 | 87 | 163 | 7.0 | 11.0 | 0.00 | 0.00 | 0.00 | 65 | 1010.2 |
| 20260904154512 | 87 | 159 | 4.0 | 13.0 | 0.00 | 0.00 | 0.00 | 66 | 1010.0 |
| 20260904153009 | 85 | 138 | 4.0 | 10.0 | 0.00 | 0.00 | 0.00 | 66 | 1010.0 |
| 20260904151506 | 85 | 146 | 3.0 | 9.0 | 0.00 | 0.00 | 0.00 | 68 | 1010.1 |
| 20260904150011 | 84 | 124 | 0.0 | 9.0 | 0.00 | 0.00 | 0.00 | 69 | 1010.1 |
| 20260904144602 | 83 | 195 | 3.0 | 13.0 | 0.00 | 0.00 | 0.00 | 70 | 1010.1 |
| 20260904143058 | 82 | 162 | 1.0 | 10.0 | 0.00 | 0.00 | 0.00 | 71 | 1010.2 |
| 20260904141559 | 81 | 176 | 0.0 | 10.0 | 0.00 | 0.00 | 0.00 | 73 | 1010.3 |
| 20260904140104 | 80 | 147 | 2.0 | 10.0 | 0.00 | 0.00 | 0.00 | 76 | 1010.2 |
| 20260904134604 | 79 | 151 | 3.0 | 10.0 | 0.00 | 0.00 | 0.00 | 78 | 1010.3 |
| 20260904133057 | 77 | 149 | 0.0 | 1.0 | 0.00 | 0.00 | 0.00 | 81 | 1010.2 |
| 20260904131552 | 76 | 132 | 0.0 | 0.0 | 0.00 | 0.00 | 0.00 | 83 | 1010.1 |
| 20260904130052 | 76 | 129 | 0.0 | 1.0 | 0.00 | 0.00 | 0.00 | 83 | 1010.1 |
| 20260904124555 | 75 | 135 | 0.0 | 0.0 | 0.00 | 0.00 | 0.00 | 84 | 1009.9 |
| 20260904123044 | 75 | 138 | 0.0 | 0.0 | 0.00 | 0.00 | 0.00 | 85 | 1009.8 |
| 20260904121543 | 75 | 129 | 0.0 | 0.0 | 0.00 | 0.00 | 0.00 | 85 | 1009.7 |
| 20260904120042 | 75 | 148 | 0.0 | 2.0 | 0.00 | 0.00 | 0.00 | 85 | 1009.6 |
| 20260904114540 | 75 | 146 | 0.0 | 0.0 | 0.00 | 0.00 | 0.00 | 85 | 1009.6 |
| 20260904113039 | 75 | 147 | 0.0 | 0.0 | 0.00 | 0.00 | 0.00 | 84 | 1009.7 |
| 20260904111540 | 75 | 138 | 0.0 | 0.0 | 0.00 | 0.00 | 0.00 | 84 | 1009.6 |
| 20260904110032 | 75 | 144 | 0.0 | 0.0 | 0.00 | 0.00 | 0.00 | 84 | 1009.6 |
| 20260904104532 | 75 | 139 | 0.0 | 0.0 | 0.00 | 0.00 | 0.00 | 83 | 1009.7 |
| 20260904103027 | 76 | 149 | 0.0 | 0.0 | 0.00 | 0.00 | 0.00 | 82 | 1009.5 |
| 20260904101524 | 76 | 145 | 0.0 | 0.0 | 0.00 | 0.00 | 0.00 | 82 | 1009.4 |
| 20260904100023 | 76 | 141 | 0.0 | 0.0 | 0.00 | 0.00 | 0.00 | 82 | 1009.3 |
| 20260904094522 | 76 | 140 | 0.0 | 1.0 | 0.00 | 0.00 | 0.00 | 81 | 1009.3 |
| 20260904093021 | 77 | 128 | 0.0 | 0.0 | 0.00 | 0.00 | 0.00 | 81 | 1009.2 |
| 20260904091518 | 77 | 141 | 0.0 | 0.0 | 0.00 | 0.00 | 0.00 | 80 | 1009.2 |
| 20260904090017 | 77 | 134 | 0.0 | 1.0 | 0.00 | 0.00 | 0.00 | 80 | 1009.0 |
| 20260904084516 | 77 | 143 | 0.0 | 0.0 | 0.00 | 0.00 | 0.00 | 80 | 1009.0 |
| 20260904083014 | 78 | 145 | 0.0 | 0.0 | 0.00 | 0.00 | 0.00 | 79 | 1008.9 |
| 20260904081512 | 78 | 149 | 0.0 | 0.0 | 0.00 | 0.00 | 0.00 | 78 | 1008.8 |
| 20260904080011 | 78 | 147 | 0.0 | 0.0 | 0.00 | 0.00 | 0.00 | 78 | 1009.0 |
| 20260904074509 | 78 | 148 | 0.0 | 0.0 | 0.00 | 0.00 | 0.00 | 77 | 1008.9 |
| 20260904073011 | 79 | 125 | 0.0 | 1.0 | 0.00 | 0.00 | 0.00 | 76 | 1008.8 |
| 20260904071507 | 79 | 167 | 0.0 | 2.0 | 0.00 | 0.00 | 0.00 | 76 | 1008.8 |
| 20260904070006 | 79 | 164 | 0.0 | 0.0 | 0.00 | 0.00 | 0.00 | 75 | 1009.1 |
| 20260904064504 | 80 | 146 | 0.0 | 0.0 | 0.00 | 0.00 | 0.00 | 74 | 1009.0 |
| 20260904063003 | 80 | 161 | 0.0 | 0.0 | 0.00 | 0.00 | 0.00 | 73 | 1009.2 |
| 20260904061603 | 81 | 156 | 0.0 | 0.0 | 0.00 | 0.00 | 0.00 | 72 | 1009.2 |
| 20260904060103 | 82 | 148 | 0.0 | 2.0 | 0.00 | 0.00 | 0.00 | 70 | 1009.0 |
| 20260904054554 | 82 | 159 | 6.0 | 9.0 | 0.00 | 0.00 | 0.00 | 70 | 1008.8 |
| 20260904053052 | 82 | 160 | 5.0 | 13.0 | 0.00 | 0.00 | 0.00 | 69 | 1008.7 |
| 20260904051600 | 82 | 160 | 5.0 | 9.0 | 0.00 | 0.00 | 0.00 | 68 | 1008.6 |
| 20260904050047 | 83 | 147 | 7.0 | 13.0 | 0.00 | 0.00 | 0.00 | 68 | 1008.5 |
| 20260904044546 | 83 | 142 | 0.0 | 11.0 | 0.00 | 0.00 | 0.00 | 67 | 1008.5 |
| 20260904043044 | 84 | 154 | 3.0 | 12.0 | 0.00 | 0.00 | 0.00 | 66 | 1008.6 |
| 20260904041544 | 84 | 151 | 8.0 | 14.0 | 0.00 | 0.00 | 0.00 | 66 | 1008.8 |
| 20260904040045 | 84 | 147 | 7.0 | 12.0 | 0.00 | 0.00 | 0.00 | 66 | 1008.8 |
| 20260904034543 | 84 | 152 | 0.0 | 11.0 | 0.00 | 0.00 | 0.00 | 66 | 1008.7 |
| 20260904033041 | 85 | 150 | 2.0 | 11.0 | 0.00 | 0.00 | 0.00 | 65 | 1008.6 |
| 20260904031540 | 85 | 159 | 2.0 | 10.0 | 0.00 | 0.00 | 0.00 | 64 | 1008.5 |
| 20260904030039 | 85 | 149 | 0.0 | 10.0 | 0.00 | 0.00 | 0.00 | 64 | 1008.3 |
| 20260904024539 | 86 | 158 | 2.0 | 9.0 | 0.00 | 0.00 | 0.00 | 62 | 1008.1 |
| 20260904023038 | 86 | 147 | 6.0 | 12.0 | 0.00 | 0.00 | 0.00 | 61 | 1008.1 |
| 20260904021539 | 86 | 150 | 0.0 | 7.0 | 0.00 | 0.00 | 0.00 | 62 | 1007.8 |
| 20260904020038 | 87 | 140 | 0.0 | 7.0 | 0.00 | 0.00 | 0.00 | 61 | 1007.6 |
| 20260904014542 | 87 | 159 | 0.0 | 0.0 | 0.00 | 0.00 | 0.00 | 61 | 1007.3 |
| 20260904013036 | 88 | 136 | 0.0 | 11.0 | 0.00 | 0.00 | 0.00 | 59 | 1007.1 |
| 20260904011538 | 88 | 140 | 6.0 | 11.0 | 0.00 | 0.00 | 0.00 | 58 | 1007.0 |
| 20260904010045 | 89 | 148 | 3.0 | 13.0 | 0.00 | 0.00 | 0.00 | 58 | 1006.9 |
| 20260904004534 | 90 | 133 | 7.0 | 14.0 | 0.00 | 0.00 | 0.00 | 57 | 1006.7 |
| 20260904003033 | 91 | 153 | 9.0 | 14.0 | 0.00 | 0.00 | 0.00 | 56 | 1006.6 |
| 20260904001539 | 91 | 205 | 7.0 | 12.0 | 0.00 | 0.00 | 0.00 | 54 | 1006.6 |